Weather History for Sandspit, BC

Change the Weather History Date:

Saturday, January 18, 2014

  Actual Average Record
Temperature  
Mean Temperature 44 °F -  
Max Temperature 48 °F 45 °F 48 °F (1998)
Min Temperature 39 °F 37 °F 12 °F (2012)
Degree Days  
Heating Degree Days 22    
Moisture  
Dew Point 42 °F    
Average Humidity 87    
Maximum Humidity 100    
Minimum Humidity 68    
Precipitation  
Precipitation 0.00 in 0.38 in - ()
Sea Level Pressure  
Sea Level Pressure 29.93 in    
Wind  
Wind Speed 8 mph ()    
Max Wind Speed 21 mph    
Max Gust Speed 26 mph    
Visibility 8.1 miles    
Events Rain    
Averages and records for this station are not official NWS values.
T = Trace of Precipitation, MM = Missing Value Source: Averaged Metar Reports

Daily Weather History Graph

Daily Weather History Graph

Search for Another Location

Airport:

Trip Planner

Search our weather history database for the weather conditions in past years. The results will help you decide how hot, cold, wet, or windy it might be!

Date:

Astronomy

Jan. 18, 2014 Rise Set
Actual Time 8:50 AM PST 5:05 PM PST
Civil Twilight 8:10 AM PST 5:45 PM PST
Nautical Twilight 7:27 AM PST 6:28 PM PST
Astronomical Twilight 6:45 AM PST 7:10 PM PST
Moon 8:24 PM PST (1/18) 9:26 AM PST (1/18)
Length of Visible Light 9h 34m
Length of Day
8h 14m
Waning Gibbous, 94% of the Moon is Illuminated
Jan 18
Waning Gibbous
Jan 23
Last Quarter
Jan 30
New
Feb 6
First Quarter
Feb 14
Full

Hourly Weather History & Observations

Time (PST) Temp. Windchill Dew Point Humidity Pressure Visibility Wind Dir Wind Speed Gust Speed Precip Events Conditions
12:00 AM 42.8 °F - 39.2 °F 87% 29.77 in 9.0 mi Variable 2.3 mph - N/A   Mostly Cloudy
1:00 AM 44 °F - 41 °F 84% 29.76 in - SSW 2.3 mph - -  
1:00 AM 44.6 °F 42.2 °F 39.2 °F 81% 29.77 in 9.0 mi SSE 4.6 mph - N/A   Overcast
2:00 AM 46.4 °F 41.9 °F 41.0 °F 81% 29.77 in 9.0 mi SE 9.2 mph - N/A   Overcast
2:53 AM 46.4 °F 38.7 °F 44.6 °F 93% 29.76 in 7.0 mi SSE 20.7 mph - N/A   Overcast
2:56 AM 46.4 °F 39.2 °F 44.6 °F 93% 29.76 in 7.0 mi SSE 18.4 mph 24.2 mph N/A Rain Light Rain
3:00 AM 46.4 °F 39.0 °F 44.6 °F 93% 29.76 in 7.0 mi SSE 19.6 mph - N/A Rain Light Rain
3:29 AM 46.4 °F 42.9 °F 44.6 °F 93% 29.77 in 9.0 mi SSE 6.9 mph 18.4 mph N/A   Overcast
3:56 AM 46.4 °F 41.9 °F 44.6 °F 93% 29.78 in 9.0 mi SSE 9.2 mph 17.3 mph N/A Rain Light Rain
4:00 AM 46 °F - 44 °F 92% 29.77 in - SSE 6.9 mph - -  
4:00 AM 46.4 °F 42.4 °F 44.6 °F 93% 29.78 in 6.0 mi SE 8.1 mph 17.3 mph N/A Rain Light Rain
4:02 AM 46.4 °F 42.4 °F 44.6 °F 93% 29.77 in 5.0 mi SSE 8.1 mph 17.3 mph N/A Rain Light Rain
4:10 AM 46.4 °F 41.1 °F 44.6 °F 93% 29.77 in 6.0 mi SSE 11.5 mph - N/A Rain Light Rain
4:15 AM 46.4 °F 41.5 °F 44.6 °F 93% 29.77 in 7.0 mi SE 10.4 mph - N/A   Overcast
5:00 AM 44.6 °F 41.4 °F 42.8 °F 93% 29.77 in 7.0 mi ESE 5.8 mph - N/A   Clear
6:00 AM 44.6 °F 39.2 °F 44.6 °F 100% 29.78 in 9.0 mi SE 10.4 mph - N/A   Mostly Cloudy
6:56 AM 46.4 °F 41.9 °F 44.6 °F 93% 29.83 in 7.0 mi WSW 9.2 mph - N/A Rain Light Rain
6:59 AM 46.4 °F 41.9 °F 44.6 °F 93% 29.83 in 5.0 mi WSW 9.2 mph - N/A Rain Light Rain
7:00 AM 47 °F - 46 °F 94% 29.82 in - SSW 3.5 mph - -  
7:00 AM 46.4 °F 41.9 °F 44.6 °F 93% 29.83 in 5.0 mi WSW 9.2 mph - N/A Rain Light Rain
7:13 AM 46.4 °F 43.5 °F 44.6 °F 93% 29.83 in 6.0 mi SW 5.8 mph 17.3 mph N/A Rain Light Rain
7:20 AM 48.2 °F - 42.8 °F 82% 29.84 in 9.0 mi WSW 12.7 mph 18.4 mph N/A   Mostly Cloudy
8:00 AM 46.4 °F 40.7 °F 42.8 °F 87% 29.86 in 9.0 mi WSW 12.7 mph 19.6 mph N/A   Partly Cloudy
9:00 AM 46.4 °F 45.2 °F 42.8 °F 87% 29.90 in 9.0 mi South 3.5 mph - N/A   Mostly Cloudy
9:08 AM 44.6 °F - 42.8 °F 93% 29.91 in 9.0 mi Variable 2.3 mph - N/A   Mostly Cloudy
10:00 AM 47 °F - 43 °F 82% 29.95 in - North 3.5 mph - -  
10:00 AM 48.2 °F - 42.8 °F 82% 29.96 in 9.0 mi Variable 5.8 mph - N/A   Overcast
10:31 AM 46.4 °F 41.5 °F 41.0 °F 81% 29.98 in 9.0 mi SW 10.4 mph 18.4 mph N/A   Mostly Cloudy
11:00 AM 46.4 °F 43.5 °F 41.0 °F 81% 30.01 in 9.0 mi WSW 5.8 mph - N/A   Partly Cloudy
12:00 PM 46.4 °F 41.9 °F 41.0 °F 81% 30.04 in 9.0 mi WSW 9.2 mph - N/A   Clear
12:53 PM 46.4 °F 38.7 °F 41.0 °F 81% 30.05 in 9.0 mi WSW 20.7 mph 26.5 mph N/A   Clear
1:00 PM 48 °F - 41 °F 68% 30.05 in - SW 3.5 mph - -  
1:00 PM 48.2 °F - 41.0 °F 76% 30.06 in 9.0 mi WSW 17.3 mph 26.5 mph N/A   Clear
2:00 PM 48.2 °F - 39.2 °F 71% 30.07 in 9.0 mi SW 9.2 mph - N/A   Clear
3:00 PM 48.2 °F - 39.2 °F 71% 30.09 in 9.0 mi SW 10.4 mph - N/A   Clear
4:00 PM 45 °F - 38 °F 70% 30.10 in - SSW 3.5 mph - -  
4:00 PM 44.6 °F 38.4 °F 39.2 °F 81% 30.10 in 9.0 mi SW 12.7 mph - N/A   Clear
5:00 PM 42.8 °F 36.6 °F 39.2 °F 87% 30.12 in 9.0 mi WSW 11.5 mph - N/A   Clear
6:00 PM 42.8 °F 41.1 °F 39.2 °F 87% 30.12 in 9.0 mi South 3.5 mph - N/A   Mostly Cloudy
7:00 PM 41 °F - 38 °F 87% 30.12 in - WSW 2.3 mph - -  
7:00 PM 41.0 °F 37.1 °F 37.4 °F 87% 30.13 in 9.0 mi WSW 5.8 mph - N/A   Scattered Clouds
8:00 PM 41.0 °F 36.4 °F 37.4 °F 87% 30.13 in 9.0 mi WSW 6.9 mph - N/A   Mostly Cloudy
9:00 PM 41.0 °F 35.8 °F 37.4 °F 87% 30.13 in 9.0 mi WSW 8.1 mph - N/A   Mostly Cloudy
10:00 PM 39 °F - 36 °F 86% 30.12 in - WSW 2.3 mph - -  
10:00 PM 41.0 °F 37.1 °F 37.4 °F 87% 30.13 in 9.0 mi West 5.8 mph - N/A   Clear
11:00 PM 39.2 °F 34.2 °F 37.4 °F 93% 30.14 in 9.0 mi West 6.9 mph - N/A   Overcast